Regional Weather Roundup
Issued by NWS Upton, NY

Current Version | Previous Version | Text Only | Print | Product List | Glossary On
Versions: 1 2 3 4 5 6 7 8 9 10 11 12 13 14 15 16 17 18 19 20 21 22 23 24 25 26 27 28 29 30 31 32 33 34 35 36 37 38 39 40 41 42 43 44 45 46 47 48 49 50
549 ASUS41 KOKX 261909 RWROKX REGIONAL WEATHER ROUNDUP NATIONAL WEATHER SERVICE NEW YORK NY 300 PM EDT FRI MAY 26 2017 NOTE: "FAIR" INDICATES FEW OR NO CLOUDS BELOW 12,000 FEET WITH NO SIGNIFICANT WEATHER AND/OR OBSTRUCTIONS TO VISIBILITY. NYZ071-072-176-178-NJZ106-104-262000- NEW YORK CITY METRO AREA CITY SKY/WX TMP DP RH WIND PRES REMARKS Central Park CLOUDY 71 53 52 NW8 29.64R Wall St Helipt CLOUDY 73 55 53 VRB5 29.62R Bronx Bot Gard N/A 72 52 49 W8 29.62F LaGuardia APRT PTSUNNY 72 52 49 NW21G26 29.60R Kennedy INTL PTSUNNY 75 56 51 W14G21 29.62R Breezy Point N/A 68 N/A N/A W8 N/A Newark/Liberty PTSUNNY 73 56 54 W14 29.61R Teterboro CLOUDY 72 53 51 NW18G29 29.61R $$ NYZ177-179-078>081-262000- LONG ISLAND NEW YORK CITY SKY/WX TMP DP RH WIND PRES REMARKS Jones Beach N/A 68 N/A N/A W12 N/A Matinecock PT NOT AVBL Farmingdale PTSUNNY 75 55 49 W12G20 29.59R MacArthur/ISP PTSUNNY 76 56 49 NW20 29.58S Shirley PTSUNNY 70 61 73 S6 29.59F Mt Sinai Harb N/A 64 N/A N/A W2 N/A Westhampton CLOUDY 68 57 68 SW7G18 29.61S East Hampton CLOUDY 64 56 75 NW8 29.60R Montauk N/A 65 55 70 VRB7 29.61S $$ NYZ052-065-067-262000- HUDSON VALLEY CITY SKY/WX TMP DP RH WIND PRES REMARKS White Plains PTSUNNY 73 53 49 W17G25 29.60R Larchmont Harb N/A 72 N/A N/A W14G22 N/A Croton O-T Hud N/A 70 N/A N/A W15 N/A Newburgh PTSUNNY 72 57 60 NW14G26 29.62R Montgomery CLOUDY 71 53 52 NW8G21 29.61R Poughkeepsie CLOUDY 71 55 56 W13 29.58S Albany DRIZZLE 58 56 93 E5 29.60R FOG $$ NJZ001-105-106-008-010-013-015-019>022-104-262000- NEW JERSEY CITY SKY/WX TMP DP RH WIND PRES REMARKS Newark/Liberty PTSUNNY 73 56 54 W14 29.61R Teterboro CLOUDY 72 53 51 NW18G29 29.61R Caldwell CLOUDY 73 54 51 NW10 29.63R Somerville PTSUNNY 74 57 55 VRB7G20 29.61S Linden MOCLDY 75 56 51 W14G22 29.62R Perth Amboy N/A 72 N/A N/A W18G28 N/A Sussex PTSUNNY 72 55 55 W9G16 29.64S Andover N/A 68 53 58 VRB7 29.65R Trenton PTSUNNY 73 57 57 W10G24 29.65R Millville CLOUDY 74 59 59 W16G26 29.69S Atlantic City CLOUDY 72 56 57 W17 29.68R Wrightstown PTSUNNY 74 56 54 W20G25 29.62S Toms River PTSUNNY 76 58 53 W18 29.65R Belmar CLOUDY 74 57 55 W17G23 29.64S $$ PAZ047>061-062-071-262000- EASTERN PENNSYLVANIA CITY SKY/WX TMP DP RH WIND PRES REMARKS Philadelphia LGT RAIN 73 54 51 W17G23 29.68R Allentown PTSUNNY 72 54 53 W17G25 29.66R Scranton LGT RAIN 67 55 65 W8 29.67R $$ CTZ002-004>006-009-010-012-RIZ004-006-007-MAZ004-011-015-262000- SOUTHERN NEW ENGLAND IN CT CITY SKY/WX TMP DP RH WIND PRES REMARKS Bradley INTL CLOUDY 61 55 81 CALM 29.60R Hartford CLOUDY 64 55 72 N5 29.59S Danbury PTSUNNY 70 54 56 W15G24 29.60S Wtrbury/Oxford PTSUNNY 66 54 63 NW12 29.61R Bridgeport CLOUDY 67 58 72 E6 29.59R Meriden PTSUNNY 68 56 65 N10 29.58S New Haven PTSUNNY 66 59 78 CALM 29.59S Chester MOCLDY 66 55 68 NW6G14 29.59S Groton CLOUDY 60 55 83 SW7 29.59S Wilimantic CLOUDY 60 55 83 CALM 29.60S IN RI CITY SKY/WX TMP DP RH WIND PRES REMARKS Providence LGT RAIN 57 55 93 W6 29.59S Block Island CLOUDY 60 54 80 W10 29.61R Westerly CLOUDY 60 55 83 SW6 29.61R IN MA CITY SKY/WX TMP DP RH WIND PRES REMARKS Boston CLOUDY 59 51 75 W15 29.56 Worcester LGT RAIN 53 50 89 W6 29.59R Westfield CLOUDY 59 57 93 CALM 29.59R Provincetown CLOUDY 51 49 92 NW16G23 29.56R Nantucket CLOUDY 56 51 84 W16 29.57R $$ ANZ330-335-338-340-345-350-353-355-262000- COASTAL MARINE OBSERVATIONS STATION/POSITION TIME SKY/WX TEMP WIND PRES VSBY WAVE AIR SEA DIR/SP/G HT/PER (UTC) (F) (DEG/KT/KT) (MB) (MI) (FT/S) NY HARB ENTRANCE 1750 65 58 270/ 12/ 12 1002.5 5/ 8 20 S FIRE ISLAND NOT AVBL GREAT SOUTH BAY 1830 64 63 240/ 10/ 14 N/A 23 SSW MONTAUK P 1750 55 54 1002.9 7/10 15 E BARNEGAT LI 1830 60 N/A 6/10 HUDSON CANYON 1750 57 55 230/ 12/ 16 1004.1 6/ 8 KINGS POINT 1848 68 59 340/ 17/ 23 1002.3 EXECUTION ROCKS 1830 71 N/A CENTRAL LI SOUND NOT AVBL EASTERN LI SOUND NOT AVBL ROBBINS REEF 1848 72 300/ 18/ 23 1003.1 $$ >>>>>>>>>>>>>>>>>>>>>>>>>>>> KEY <<<<<<<<<<<<<<<<<<<<<<<<<<< > < > SKY/WX - Sky Condition/Present Weather < > TMP - Temperature in Fahrenheit < > DP - Dew Point in Fahrenheit < > RH - Relative Humidity in Percent < > WIND - Direction (from) and Speed in MPH < > PRES - Mean Sea Level Pressure (inches of Hg) < > WCI - Wind Chill Index < > VSB - VISIBILITY IN MILES < > HX - HEAT INDEX < > TC - TEMPERATURE IN CELSIUS < > VRB - VARIABLE WIND DIRECTION < > < >>>>>>>>>>>>>>>>>>>>>>>>>>>> KEY <<<<<<<<<<<<<<<<<<<<<<<<<<<

USA.gov is the U.S. government's official web portal to all federal, state and local government web resources and services.